GFSGBSN_250_spd_045.txt.gz
Wind_Speed
91 89 87 80 75 73 74 69 68 72 71 63 61 62 66 64 66 65 66 63 57 56 47 42 42 41 42 41 33 31 27 24 25 22 19 23 22 20 22 26 28 35 44 51 40 12 9
87 81 78 74 76 77 75 77 75 76 75 64 63 64 63 63 68 67 68 67 62 60 53 42 38 37 40 41 30 31 26 27 20 19 25 22 20 18 28 29 28 34 41 48 44 25 21
79 76 71 72 73 71 77 85 80 79 75 70 61 64 62 58 67 66 68 68 65 60 54 49 39 37 40 41 30 32 28 19 20 25 24 21 20 26 28 26 27 32 40 43 46 38 21
70 65 65 69 63 64 65 62 63 62 64 64 66 63 64 65 63 65 66 66 64 62 58 56 43 33 39 38 22 27 21 20 18 23 26 25 23 23 23 26 27 30 38 41 45 42 28
58 56 61 60 55 59 59 61 62 62 66 58 62 63 66 66 62 67 68 66 66 61 63 61 47 35 37 30 29 23 24 23 19 31 29 24 24 22 25 27 28 32 37 43 41 43 39
52 59 59 56 62 63 64 67 68 66 67 64 63 66 66 61 63 67 67 73 67 66 58 60 44 38 35 37 32 30 25 22 20 33 37 31 28 23 23 26 29 32 36 40 44 38 39
59 58 57 63 67 70 72 71 71 71 72 71 70 68 66 62 63 62 68 71 68 61 54 58 52 43 40 40 40 40 37 33 36 36 36 34 34 22 26 30 30 33 35 36 44 41 40
67 61 61 63 65 67 73 79 77 80 79 76 76 76 71 67 66 71 69 70 69 63 62 58 50 48 52 43 42 45 47 43 40 39 34 35 31 23 26 29 30 34 34 37 39 44 46
59 71 69 72 75 71 71 71 75 78 78 79 75 79 73 71 72 76 71 70 68 66 64 58 57 50 56 46 46 47 50 50 46 39 37 38 32 31 27 27 27 32 37 37 39 41 41
70 68 76 76 80 81 80 78 76 75 76 76 78 80 82 84 79 81 82 82 74 66 62 56 63 51 55 49 44 56 49 57 50 50 46 42 40 39 38 32 29 29 36 35 36 39 38
77 77 79 82 85 88 87 88 85 82 82 80 79 79 83 83 89 85 84 89 84 77 73 66 63 54 58 55 53 57 53 53 54 56 50 49 46 48 42 41 34 26 35 35 39 34 35
83 85 84 86 85 85 92 91 96 93 93 91 90 85 83 87 89 91 91 89 87 82 68 69 62 60 59 57 57 61 58 55 55 59 54 54 54 50 47 44 38 27 33 33 37 31 29
86 86 90 91 92 92 94 92 98 99 99 99 97 96 93 90 94 92 94 92 93 85 74 72 67 59 64 63 64 63 63 59 56 57 57 58 59 55 49 50 43 36 33 32 36 32 33
84 86 87 88 92 95 99 99 100 98 100 108 106 103 102 99 101 95 98 99 94 79 76 77 72 69 63 65 66 68 62 60 60 64 63 56 58 60 58 47 47 38 35 33 35 34 33
84 83 83 86 86 87 93 100 105 106 104 103 108 109 106 108 109 106 105 102 87 85 83 87 87 82 75 70 70 73 69 65 64 63 64 60 58 63 59 57 47 38 41 41 38 36 32
78 78 78 80 81 83 86 90 94 103 108 111 109 108 112 114 115 115 115 99 87 86 90 95 94 88 88 84 78 78 77 71 69 67 66 58 56 61 54 53 43 39 46 42 34 32 33
73 72 72 74 76 78 80 83 85 89 95 102 105 111 115 116 114 114 112 109 104 99 100 106 97 94 90 83 80 78 72 72 68 61 63 61 57 55 57 51 48 47 47 47 39 32 32
65 66 67 68 71 74 77 79 82 84 87 89 92 97 107 110 111 104 105 111 112 113 113 112 106 98 93 92 91 86 77 76 69 69 68 63 61 58 56 53 53 51 49 51 46 37 37
60 61 62 64 66 68 69 72 75 78 83 86 85 90 94 98 94 93 97 103 107 106 108 106 109 111 108 106 102 86 78 77 75 76 74 70 66 61 60 56 54 53 55 56 52 44 34
55 54 55 57 58 61 65 68 70 73 74 80 83 85 85 84 85 84 86 90 90 97 95 102 105 111 110 108 103 94 81 83 81 74 78 77 73 65 61 64 64 59 56 56 57 47 36
49 50 50 52 53 56 58 62 65 69 73 79 78 72 75 74 72 80 78 82 86 87 89 86 88 99 107 113 106 95 91 87 86 85 80 88 76 69 67 70 72 67 62 56 55 51 50
48 49 51 52 54 56 57 60 62 64 69 77 74 66 68 70 72 76 74 71 75 77 79 76 78 93 99 100 100 102 104 97 93 90 87 88 79 74 76 75 79 74 68 60 55 51 51
49 50 52 53 55 56 58 59 61 64 69 71 69 62 64 63 67 70 61 59 66 77 75 73 78 80 83 83 92 102 111 109 101 98 94 90 91 89 81 81 80 79 70 65 61 59 55
49 50 51 52 53 54 56 57 59 61 64 66 62 58 58 55 62 52 57 60 64 68 69 68 68 68 74 97 92 94 92 103 102 105 100 96 95 95 89 88 90 70 72 69 64 61 58
48 49 51 51 52 54 56 59 62 64 67 71 61 63 62 55 54 53 52 56 64 66 66 64 59 71 83 91 85 85 89 95 104 110 104 106 94 92 92 90 84 78 72 74 73 65 58
46 48 51 54 56 58 61 64 66 68 71 71 62 65 61 55 43 59 62 62 66 66 67 57 64 75 81 83 84 83 81 86 94 101 110 108 101 100 94 94 87 78 77 78 82 69 66
48 50 53 54 55 56 58 61 63 65 67 66 66 61 56 51 50 52 50 54 67 69 66 65 67 75 81 76 77 76 71 80 85 92 99 106 109 107 101 95 89 86 80 80 84 68 71
46 47 47 47 49 50 53 56 57 60 62 63 59 56 58 52 49 48 52 56 60 62 64 70 81 70 69 64 66 67 68 73 81 84 93 102 108 109 109 100 94 87 88 87 83 79 79
38 38 39 39 40 42 45 47 50 53 55 55 54 57 58 52 46 46 48 56 55 60 64 68 64 65 55 58 57 57 66 75 78 82 89 98 106 107 106 102 98 96 95 92 89 86 83

GFSGBSN_250_spd_048.txt.gz
Wind_Speed
105 110 112 105 107 98 99 99 98 91 84 74 67 64 57 61 62 64 63 58 53 55 57 56 55 53 47 40 35 37 40 33 26 20 20 21 20 21 18 20 27 25 26 31 31 31 29
114 118 117 98 99 98 99 99 93 91 77 66 61 62 69 59 64 64 57 54 57 54 58 54 55 53 47 48 34 35 39 34 29 22 19 21 25 27 20 20 22 26 23 28 33 29 34
110 119 125 112 123 114 97 81 80 77 68 66 67 59 67 63 67 69 61 55 56 53 56 56 55 55 55 52 35 34 35 36 33 24 21 22 22 19 16 21 20 21 26 27 38 26 32
108 100 101 93 87 77 69 64 65 64 66 65 70 70 70 69 68 67 66 63 59 43 48 50 54 56 55 48 35 36 35 32 30 27 20 23 22 19 19 17 19 22 29 28 32 38 29
95 89 77 73 63 59 57 56 56 61 65 62 61 70 73 71 72 66 67 62 59 46 47 48 51 56 55 47 43 33 37 26 29 28 22 20 20 18 19 21 18 20 28 29 32 39 30
83 74 67 60 55 51 49 53 56 59 58 55 57 57 64 59 61 62 60 61 56 54 47 44 44 45 52 46 46 37 32 32 33 33 33 21 31 31 28 25 25 19 24 29 35 33 38
72 65 61 55 50 50 50 53 55 58 54 53 58 59 55 55 56 51 55 57 57 53 51 47 47 50 52 49 50 40 36 36 31 32 34 28 33 41 28 26 23 21 21 28 32 32 35
67 62 59 56 53 55 53 59 60 58 59 60 60 62 63 63 62 61 56 57 56 52 49 53 54 55 57 52 50 46 42 36 38 41 40 38 43 39 35 29 27 26 23 27 30 33 35
65 62 61 60 56 58 60 60 59 60 65 65 69 66 68 66 68 66 62 60 61 57 49 48 51 51 59 51 53 53 47 43 44 45 41 40 47 35 35 31 34 33 31 29 30 33 37
66 66 65 63 63 62 63 66 67 69 65 72 76 71 71 74 69 72 69 68 60 53 57 55 50 52 55 51 48 60 51 52 48 43 45 40 45 43 38 37 38 41 38 32 32 34 35
69 68 68 69 71 72 70 69 75 73 73 73 75 81 77 77 77 77 73 75 72 67 51 59 55 50 55 56 59 60 59 52 46 49 46 46 46 45 47 47 42 43 39 31 30 34 32
70 73 72 72 74 77 79 78 79 81 83 82 79 76 73 82 80 72 73 78 74 74 57 57 63 63 59 59 63 62 56 52 54 49 44 51 50 45 50 51 47 44 42 34 32 34 32
72 73 74 75 77 80 84 87 86 88 87 89 89 84 78 81 81 77 77 75 73 68 67 69 65 71 74 72 69 64 60 54 53 48 47 55 53 53 51 51 49 51 43 38 40 39 34
76 76 77 79 81 83 84 88 91 93 91 94 91 92 89 90 84 80 81 79 73 68 68 73 78 71 71 72 73 68 62 56 54 52 53 52 56 55 52 51 52 55 49 42 41 42 36
80 81 81 81 80 81 81 82 85 90 94 96 96 96 93 97 95 91 87 79 73 71 72 80 79 82 81 80 79 79 70 66 61 58 56 58 55 63 59 57 53 50 48 46 44 44 36
81 81 80 77 77 75 75 79 82 83 84 90 97 97 97 103 99 100 93 84 81 79 83 88 83 78 80 84 81 77 71 63 60 60 60 61 58 62 62 61 56 52 49 47 44 45 37
77 74 72 70 72 73 73 73 74 78 81 84 87 93 104 101 100 103 86 83 91 92 94 97 90 85 84 82 81 79 75 73 73 70 66 65 60 66 65 58 57 54 46 43 45 46 40
71 68 67 67 68 68 68 69 71 73 76 82 82 79 91 96 98 94 90 94 100 104 104 100 99 95 91 88 84 79 76 80 78 76 70 70 69 69 65 66 58 53 46 48 48 46 45
64 62 60 62 62 62 63 66 69 72 75 77 79 77 83 86 81 88 96 103 104 103 101 103 101 98 103 100 92 87 85 84 80 79 76 76 70 68 64 60 55 48 51 53 51 51 48
57 55 55 56 57 57 58 60 63 67 71 77 78 74 73 74 75 80 86 92 99 106 105 100 101 107 103 101 99 95 89 88 86 86 82 80 75 67 62 60 59 57 56 54 54 52 46
52 51 51 51 54 55 56 58 60 63 67 72 68 62 67 70 72 77 82 85 91 98 98 102 107 110 108 104 107 100 100 100 101 93 86 80 76 75 66 68 65 61 61 58 53 50 52
46 46 47 47 48 50 51 52 54 58 64 67 58 57 63 65 70 72 75 76 82 82 86 88 93 106 100 104 110 113 109 106 103 99 97 95 90 81 76 71 68 70 64 62 61 56 55
46 46 45 46 47 48 50 51 53 56 61 60 54 57 60 62 64 66 61 71 77 79 80 82 85 85 88 96 103 107 108 107 104 100 98 97 90 87 80 76 77 75 62 66 66 67 64
46 46 45 46 46 47 48 49 50 53 55 56 52 58 57 55 59 56 65 67 69 73 72 74 74 74 88 91 92 94 93 91 92 96 100 107 99 90 82 82 89 62 73 74 73 72 70
45 44 43 43 44 45 47 48 50 50 52 54 52 53 51 52 54 61 60 64 66 65 66 69 68 75 84 83 81 82 82 83 81 84 89 95 96 97 93 90 86 77 76 78 80 72 71
40 40 41 42 43 45 47 47 48 50 52 52 50 50 48 48 45 58 60 59 60 62 63 63 67 72 77 75 76 75 74 71 74 77 85 89 88 96 94 96 93 82 86 86 81 81 79
37 38 40 41 42 45 48 50 52 54 57 57 54 53 50 46 50 52 51 53 59 60 58 64 67 66 69 68 66 67 66 66 67 71 76 83 88 85 97 95 93 91 90 88 85 79 83
40 42 45 47 49 51 53 55 57 58 60 58 55 55 54 46 53 54 58 55 61 59 57 64 69 59 61 63 62 61 59 62 64 68 72 78 84 83 86 93 100 96 92 92 89 86 86
38 39 41 42 44 45 48 51 53 56 56 55 52 55 53 48 47 49 50 53 55 60 65 69 66 67 65 63 58 55 55 58 58 61 70 74 73 76 84 83 94 102 97 97 93 93 91

GFSGBSN_250_spd_054.txt.gz
Wind_Speed
85 87 90 91 89 89 93 95 100 100 106 109 110 112 112 110 108 102 98 91 89 89 92 86 90 89 79 69 68 55 45 47 44 46 38 38 32 28 25 28 28 24 25 26 24 21 24
89 89 91 92 99 103 103 100 103 107 105 110 108 111 110 98 94 84 83 86 94 91 83 89 87 71 68 63 65 53 45 47 44 42 40 37 30 29 24 26 25 24 26 19 21 21 29
92 96 100 102 106 105 104 103 103 104 107 110 106 105 98 103 75 69 70 70 76 80 76 71 73 60 57 64 58 52 51 47 44 43 44 38 31 31 22 25 26 30 19 14 16 22 25
96 98 101 102 107 104 106 105 107 109 110 105 98 95 76 68 59 55 57 55 54 57 61 54 54 55 56 60 56 52 49 45 47 45 38 37 34 31 23 26 28 26 20 16 18 22 24
98 97 101 106 104 102 105 106 106 107 102 101 97 87 71 58 50 44 41 42 51 53 50 48 49 51 55 56 56 53 55 47 47 43 40 38 36 31 26 26 29 24 18 19 26 22 22
102 105 109 102 101 104 104 104 107 104 100 96 89 74 61 49 43 37 37 41 49 48 52 53 50 48 53 55 51 52 53 47 46 46 44 44 39 34 28 26 29 23 22 25 29 26 25
108 99 99 100 102 105 103 105 106 100 97 93 78 64 55 45 39 36 39 43 47 47 53 49 47 46 54 53 49 51 51 49 45 47 46 46 41 41 28 27 27 30 29 29 29 23 27
97 99 103 102 105 106 107 107 105 100 92 80 68 60 51 43 40 38 39 48 52 50 47 55 52 50 55 59 53 50 47 47 43 47 47 41 46 43 30 29 34 32 30 32 31 27 30
101 107 106 107 107 108 108 106 99 93 84 71 63 57 51 45 40 41 43 49 55 55 52 56 57 55 64 56 51 51 54 52 44 44 45 44 49 42 35 35 41 38 37 29 28 24 27
107 108 109 109 109 109 108 104 98 90 80 65 62 56 52 48 43 43 44 48 56 60 58 63 54 57 54 54 47 56 50 55 45 47 48 41 46 46 42 37 39 37 32 32 23 24 30
110 113 113 110 109 108 102 99 93 85 74 64 61 57 54 52 51 50 51 53 57 55 55 67 59 59 60 61 59 60 59 57 45 50 48 43 52 50 44 45 37 49 32 33 28 25 33
114 109 107 105 104 101 97 94 88 78 71 66 62 59 56 58 57 54 60 56 52 52 42 55 63 65 65 52 55 62 59 57 58 52 45 48 49 44 50 47 42 44 40 40 35 31 31
109 106 110 106 100 96 95 86 78 73 71 67 65 62 60 62 62 60 61 57 55 52 52 54 53 59 62 54 54 59 55 56 59 57 50 53 50 48 52 50 48 50 50 44 36 35 32
111 109 105 103 100 97 88 79 75 73 73 70 68 65 66 68 69 65 65 61 59 66 64 55 60 60 62 61 63 59 54 55 55 59 57 54 54 53 55 56 56 56 54 46 38 36 36
107 104 98 93 88 84 82 78 76 74 74 72 71 69 69 72 71 71 70 66 60 69 72 68 63 68 67 66 68 65 60 59 57 53 54 52 52 54 53 55 55 53 50 48 32 29 34
98 93 89 86 83 80 78 76 74 74 74 76 71 69 68 71 70 70 71 68 66 69 75 72 72 68 69 69 73 70 69 66 65 57 57 52 50 51 53 51 53 56 52 43 36 32 32
94 89 85 82 78 74 72 71 72 74 77 77 71 68 69 72 68 64 61 70 72 73 79 80 76 76 72 72 71 73 73 70 66 63 66 58 52 60 62 59 59 58 52 48 42 39 31
86 84 82 79 75 73 72 72 74 77 79 76 72 65 70 74 67 59 60 66 77 84 80 82 78 78 81 77 77 78 76 76 72 68 67 67 58 57 56 61 64 61 59 54 40 36 35
84 82 79 76 73 72 72 72 74 75 73 72 67 63 64 71 59 56 63 67 80 86 83 83 82 77 74 80 78 83 85 78 76 76 72 70 63 64 66 66 64 63 63 53 51 44 36
80 75 73 71 72 72 72 70 69 69 69 64 58 57 57 61 59 65 69 72 74 83 89 85 84 84 79 78 79 75 71 71 70 68 67 76 73 73 73 74 70 61 63 62 59 50 45
72 70 69 67 67 67 67 66 64 65 62 54 51 51 52 52 61 67 70 74 76 78 83 92 88 88 88 86 82 81 81 75 75 74 71 71 72 71 70 72 69 65 67 67 63 55 53
63 61 63 64 62 62 60 60 60 58 53 45 47 48 47 52 59 58 63 68 74 80 79 86 96 95 90 88 88 86 84 81 79 80 78 76 75 72 72 70 69 67 67 65 63 60 60
58 58 57 57 57 56 56 54 52 49 43 40 43 43 43 49 50 49 57 68 74 76 78 82 89 93 97 94 86 87 85 83 83 82 80 79 80 80 77 76 75 76 78 77 70 67 64
52 52 52 51 52 51 49 48 45 40 35 37 40 41 42 46 44 52 58 64 69 75 80 82 82 88 91 97 94 93 89 88 86 86 85 82 84 86 83 86 85 78 82 75 75 71 71
45 45 46 46 45 44 44 43 39 35 34 37 36 39 42 43 46 48 55 61 68 72 76 77 79 83 80 85 95 101 97 92 92 92 88 87 87 86 86 88 81 80 81 81 81 75 77
40 41 41 40 40 41 40 39 36 33 33 36 37 38 41 42 44 50 52 57 63 67 70 74 77 76 76 79 83 86 91 96 100 100 96 95 93 89 90 91 88 83 89 91 92 81 90
36 37 38 39 39 38 37 37 35 33 33 34 37 38 36 37 44 49 51 54 57 62 67 72 72 72 71 72 74 77 82 84 85 88 94 98 100 99 98 99 97 96 100 102 100 92 92
36 37 37 37 37 37 37 36 36 34 34 34 38 36 35 39 41 44 46 52 57 60 63 68 63 66 69 69 71 74 76 78 79 82 85 86 87 89 89 91 94 100 103 104 106 100 99
34 35 36 36 37 38 37 37 37 36 35 35 35 36 37 39 41 43 45 49 53 58 62 62 61 60 62 60 61 68 71 74 77 76 79 80 79 80 81 82 82 84 85 84 87 87 86

GFSGBSN_250_spd_057.txt.gz
Wind_Speed
77 81 84 83 82 84 87 89 89 91 92 94 96 98 101 103 101 99 97 93 91 87 75 73 69 79 82 83 88 80 77 75 73 69 57 48 42 37 32 32 28 22 21 25 24 24 22
79 81 81 82 84 88 91 90 89 92 95 97 98 97 104 99 98 94 86 78 83 69 66 61 63 63 63 73 79 72 67 70 65 58 49 41 37 37 33 28 27 21 19 22 26 20 18
75 84 81 81 84 84 88 89 93 94 95 97 102 107 100 95 99 91 76 79 68 53 58 53 51 56 57 63 69 66 64 60 61 58 49 38 35 38 33 27 25 21 20 25 25 21 18
76 80 83 86 86 86 88 91 94 96 96 98 96 97 98 96 94 89 80 75 58 48 48 47 51 53 55 66 64 65 56 56 56 54 49 37 37 38 36 30 25 21 23 24 22 20 20
83 85 87 90 93 91 95 96 98 98 100 105 98 100 99 98 96 84 81 65 52 45 44 44 44 47 53 59 58 56 58 57 55 50 45 41 40 41 37 29 25 22 24 22 23 23 21
90 93 94 94 94 94 94 95 96 101 102 100 99 99 100 97 92 83 76 58 44 40 37 34 38 42 54 54 50 54 56 57 52 48 45 43 40 44 41 32 28 20 22 25 26 24 23
95 96 92 96 99 98 95 100 100 102 100 99 99 100 99 96 91 80 64 50 38 30 31 31 40 46 50 51 45 53 56 54 53 51 45 44 41 48 48 30 27 26 24 29 28 24 26
92 91 96 96 93 97 100 98 101 99 100 101 103 103 104 95 85 75 54 43 33 25 33 38 47 46 48 53 46 57 57 50 50 51 50 46 41 56 46 34 34 31 29 31 30 25 29
91 92 91 92 94 96 95 97 101 99 100 102 107 103 94 88 79 67 48 40 33 30 39 41 46 48 49 48 55 56 53 50 49 45 46 48 53 52 47 36 38 37 33 27 22 24 28
96 97 97 99 99 102 102 101 99 100 102 106 105 98 89 80 74 60 44 37 36 36 47 44 45 49 48 53 50 56 53 51 49 46 44 47 50 51 50 40 43 41 31 25 23 22 27
100 102 97 100 95 97 99 99 100 103 105 105 99 91 82 77 69 53 43 37 39 40 47 51 50 47 52 55 58 55 53 53 49 51 49 49 51 53 48 49 44 44 34 31 31 27 30
103 104 107 104 102 102 102 100 102 103 102 101 97 87 78 75 63 51 45 39 44 42 49 55 53 53 55 58 59 58 55 55 54 52 56 56 49 44 48 46 38 42 39 36 32 27 32
105 104 100 100 102 104 105 103 103 103 100 98 91 81 73 66 58 50 48 43 48 51 50 52 61 59 63 58 63 56 52 55 55 55 50 53 56 45 52 46 43 44 43 41 37 32 35
105 105 105 107 107 105 106 105 103 99 93 89 79 72 64 60 57 52 50 47 48 59 60 57 60 63 66 61 61 61 59 59 59 57 56 56 57 49 49 54 52 50 48 40 40 40 33
106 104 105 106 106 105 104 102 97 89 86 80 72 67 63 62 60 54 52 47 47 59 67 66 59 63 57 65 63 64 63 60 61 55 58 61 60 59 52 55 53 49 43 45 39 36 38
108 107 107 106 104 102 98 90 87 84 80 76 69 66 65 63 61 57 52 49 51 58 67 73 69 69 65 61 66 69 67 64 59 57 56 62 63 62 59 56 54 52 50 49 46 40 39
102 100 98 96 93 91 90 86 82 78 75 69 63 61 65 66 62 55 50 52 55 60 67 79 75 76 73 67 68 64 66 68 60 63 59 56 58 62 63 61 58 56 53 51 48 44 40
92 92 90 88 85 84 82 80 78 76 73 66 61 58 64 66 59 51 49 51 56 65 64 76 80 84 80 74 74 68 70 73 66 68 66 59 57 57 59 63 62 56 52 49 42 37 42
85 85 84 83 83 82 79 78 77 74 69 64 60 61 63 64 56 56 57 54 58 66 68 71 85 87 88 82 77 78 73 79 71 69 71 71 58 60 61 58 57 57 56 48 43 47 46
78 77 77 77 77 76 74 73 71 69 65 60 57 56 56 54 55 59 59 57 62 69 71 71 82 87 90 94 86 79 83 80 80 72 71 73 70 64 60 62 59 56 55 55 54 55 52
66 68 69 68 69 66 66 65 65 65 63 57 51 50 51 52 56 57 55 56 63 69 71 72 78 88 90 93 93 88 85 83 80 78 76 70 70 69 67 67 66 62 63 58 53 52 54
57 56 58 58 58 57 58 59 58 58 52 47 45 47 51 50 51 49 47 55 65 72 71 74 76 86 91 88 91 93 86 82 81 77 76 76 72 71 72 70 65 66 67 64 60 65 64
50 50 51 52 52 52 52 52 52 49 43 42 41 46 44 44 44 42 48 57 64 67 70 75 77 80 86 86 83 89 84 81 81 80 83 82 79 77 76 77 73 71 75 75 73 69 68
45 44 45 46 47 47 47 46 46 42 38 37 41 43 38 43 40 45 46 52 56 62 68 75 78 79 77 78 83 86 83 80 78 76 75 73 73 74 75 75 73 70 72 74 77 74 72
40 40 40 41 41 42 42 42 40 37 35 36 40 38 38 38 40 40 45 51 53 57 62 70 74 75 73 71 78 84 80 79 78 80 78 80 78 75 74 77 75 75 79 78 76 75 76
35 35 36 36 36 36 36 36 35 33 33 37 36 36 36 33 40 41 43 47 49 52 57 65 68 66 66 70 74 81 85 81 84 83 82 81 81 84 86 84 82 81 83 85 87 85 83
31 31 32 32 32 32 32 32 31 31 34 34 36 37 34 35 36 38 41 44 46 49 55 60 58 58 61 65 70 73 80 85 86 88 86 86 87 84 83 83 83 86 85 84 84 81 82
29 29 29 30 30 30 30 30 30 32 34 34 36 34 35 37 36 37 39 44 46 48 51 53 51 55 61 64 68 74 75 79 84 91 91 90 89 88 90 91 90 90 90 91 89 89 88
30 31 31 32 32 32 32 32 32 33 34 35 35 35 37 37 36 38 41 45 46 46 46 49 51 54 58 61 65 70 73 75 77 77 80 83 88 95 96 96 96 95 93 96 97 96 93

GFSGBSN_250_spd_060.txt.gz
Wind_Speed
73 67 68 67 69 77 78 77 76 79 81 83 85 85 86 85 88 87 88 90 91 96 98 103 92 83 77 73 72 62 62 59 57 58 56 58 55 54 56 50 44 38 31 32 26 24 23
75 74 73 72 68 66 67 67 71 71 71 75 82 84 85 88 89 86 89 91 94 102 98 84 76 70 65 63 65 58 63 59 57 55 56 58 55 53 51 46 39 37 30 31 26 23 26
74 79 75 75 76 75 73 72 73 77 81 78 83 84 88 89 90 93 98 100 100 99 89 76 67 59 54 58 53 57 59 59 55 55 59 61 49 50 45 43 38 37 29 29 26 25 28
79 80 82 81 83 78 78 80 80 82 83 85 84 88 91 92 95 97 100 97 94 91 87 72 59 51 50 54 49 53 56 54 50 52 53 48 46 42 39 40 39 36 30 30 27 28 29
81 82 80 83 83 85 86 89 88 87 87 86 88 89 92 94 95 97 96 91 91 85 83 68 56 45 45 47 50 56 43 51 51 50 48 45 47 46 41 40 38 38 34 29 28 28 28
88 87 84 84 85 86 87 94 95 92 91 88 88 90 89 97 98 97 88 89 88 82 76 65 53 46 41 42 47 53 50 49 54 54 48 44 48 47 44 42 45 38 30 31 31 29 28
82 90 89 87 83 81 79 87 88 93 94 92 93 90 87 87 85 85 90 86 82 78 71 59 49 43 36 38 44 46 49 48 56 51 45 51 48 42 52 48 42 33 36 34 30 30 30
88 84 91 90 89 88 87 86 90 88 91 95 90 90 89 88 92 91 87 85 78 71 68 46 42 32 27 34 33 48 48 52 55 50 54 53 43 54 53 45 41 40 39 38 26 28 31
88 92 91 89 87 90 90 94 94 93 90 90 92 90 90 93 90 86 85 82 75 66 59 42 31 29 30 32 41 47 50 45 48 52 50 51 53 54 53 47 45 44 44 37 28 31 34
97 98 101 98 98 97 99 98 95 95 97 92 91 88 90 90 90 87 85 79 72 58 51 39 32 37 35 38 42 44 39 45 47 48 49 48 52 55 53 46 48 45 49 37 31 30 33
100 111 105 101 101 98 96 98 97 99 95 95 96 95 90 89 88 86 86 78 67 55 46 41 40 45 46 44 45 45 50 42 46 52 50 47 53 53 50 55 50 53 46 38 34 35 35
114 104 101 98 101 96 92 93 94 96 96 97 94 87 86 90 89 86 82 74 63 49 45 44 45 51 50 52 51 44 53 50 54 48 48 51 51 52 50 56 52 48 45 40 39 38 37
102 96 93 94 96 96 89 88 91 93 93 93 91 89 89 91 89 85 82 72 54 45 46 50 51 47 53 57 61 54 52 55 58 51 50 52 53 51 54 55 55 46 48 45 43 42 42
100 95 96 95 93 93 90 90 93 95 97 94 91 89 90 91 87 83 74 59 43 43 51 55 58 52 56 64 63 60 56 54 59 56 56 55 53 54 53 51 55 50 54 51 46 43 48
100 100 100 98 97 96 95 95 97 96 96 93 90 91 90 88 82 74 64 51 43 47 52 61 66 62 59 67 65 66 60 58 54 58 56 58 57 56 58 57 56 49 48 50 48 44 42
99 97 96 95 97 96 97 98 98 97 97 93 90 84 83 77 71 65 60 51 51 52 55 63 72 68 68 68 69 68 66 63 60 62 61 59 60 58 58 60 58 54 52 51 45 42 41
92 90 89 90 90 92 93 92 92 93 92 86 83 76 76 70 65 61 57 54 53 57 58 62 74 75 74 72 73 72 71 65 65 64 60 59 61 61 59 56 54 54 54 53 50 49 47
85 83 83 83 82 84 85 85 86 86 84 80 75 72 71 65 57 54 54 57 55 60 60 64 72 81 81 77 72 76 77 72 68 67 67 66 62 62 64 59 55 55 56 50 53 52 52
77 76 76 77 77 77 78 79 79 79 76 72 68 66 64 61 55 56 58 59 58 58 64 67 71 82 88 85 80 73 72 71 75 67 63 63 60 60 67 59 57 58 57 58 55 56 52
68 68 69 70 71 73 73 75 75 74 70 65 62 62 62 58 59 58 60 62 62 63 63 66 71 76 86 91 86 79 75 72 74 73 71 65 72 62 61 58 58 60 63 62 61 61 60
62 63 63 63 62 64 65 64 63 62 60 54 53 56 57 55 57 59 60 59 64 66 66 64 67 74 79 87 90 85 79 77 72 78 72 71 67 65 65 62 60 62 63 63 63 62 62
51 52 53 54 52 52 54 56 56 55 53 45 49 52 55 54 58 58 56 58 64 69 68 64 64 71 76 80 84 91 85 81 75 75 76 71 70 73 71 72 66 63 62 63 62 63 62
45 44 44 44 44 46 47 46 45 45 41 42 46 49 51 52 53 52 54 58 60 63 59 61 66 69 72 80 78 87 86 86 82 79 77 79 72 78 77 77 75 71 65 66 64 63 64
42 42 40 38 38 39 41 39 39 39 38 39 43 45 41 48 49 51 48 49 52 54 56 59 63 68 74 75 80 79 87 91 90 84 84 82 84 81 78 77 75 74 80 76 73 71 68
37 37 36 35 34 35 35 35 34 34 35 38 40 40 44 48 46 42 43 45 45 49 53 58 62 68 72 75 73 75 86 92 94 91 86 89 84 87 87 82 76 75 74 75 73 73 74
33 32 32 32 31 32 32 31 30 32 33 36 40 41 42 46 41 37 38 38 43 47 51 55 59 63 65 70 72 73 78 88 96 99 92 87 87 85 86 88 82 80 81 83 81 83 76
28 27 27 27 28 29 29 29 29 30 32 37 41 39 38 39 36 36 38 39 41 44 47 49 51 53 58 67 69 71 72 83 90 90 90 94 94 90 87 86 85 88 84 83 85 86 83
27 25 23 23 24 25 25 26 27 29 32 37 35 34 36 36 34 33 33 35 38 39 40 42 41 45 55 61 65 69 71 75 85 89 90 90 86 84 85 82 82 81 80 81 81 81 80
29 27 26 24 22 22 23 25 26 29 31 30 32 33 31 32 33 31 31 33 34 36 37 37 37 44 49 55 61 66 71 70 75 82 87 86 85 84 83 82 85 86 88 89 88 87 87

GFSGBSN_250_spd_063.txt.gz
Wind_Speed
57 65 60 62 61 69 75 77 74 76 77 71 63 76 78 79 79 74 74 75 80 83 89 90 93 92 91 100 104 110 102 92 73 62 55 53 54 51 52 50 42 43 42 43 45 38 33
66 60 64 64 69 71 71 69 80 81 77 81 83 78 69 76 70 79 83 81 82 83 87 88 93 94 98 105 109 102 92 81 67 60 53 53 53 50 52 46 38 44 36 41 40 37 34
69 69 75 68 73 72 78 78 74 75 81 82 85 87 80 79 79 81 82 83 81 84 88 93 101 103 101 109 107 86 77 72 63 57 53 52 53 49 46 43 43 41 39 41 41 35 35
80 84 82 86 76 73 79 86 81 83 81 85 84 84 83 85 86 86 88 88 91 87 90 96 101 106 108 99 78 68 63 52 55 52 55 53 52 47 44 42 42 42 39 41 41 35 33
78 83 86 87 86 85 83 84 87 89 88 85 83 88 88 89 91 89 88 93 93 93 93 94 101 98 80 72 66 59 48 48 47 49 49 49 50 45 43 40 46 41 44 42 40 37 31
86 91 90 88 86 90 91 83 80 81 92 92 89 86 85 88 87 87 91 88 91 91 92 99 97 85 72 64 61 49 41 40 42 48 42 45 43 43 39 43 43 49 48 40 39 35 33
97 93 89 93 94 92 88 84 77 78 76 83 78 82 84 82 78 81 87 87 87 82 91 91 86 78 61 63 55 41 38 41 48 45 47 40 45 42 48 47 53 51 50 41 42 37 34
96 99 99 95 97 90 89 91 86 83 83 81 80 82 81 83 86 81 82 83 86 83 87 85 80 65 65 55 50 37 34 40 45 42 48 45 42 47 52 55 54 52 46 45 45 38 35
104 103 103 99 97 92 92 93 94 88 87 91 90 87 90 91 89 87 86 86 87 86 85 84 76 62 57 49 45 29 33 43 43 42 36 34 41 47 55 54 56 52 50 53 47 38 35
105 104 103 93 90 91 91 93 93 92 93 97 99 95 90 90 84 84 81 82 82 86 85 80 72 59 52 43 25 34 47 51 45 44 43 49 52 51 56 53 57 54 55 51 43 38 38
108 99 99 96 95 98 95 98 100 105 106 98 95 89 88 87 89 82 82 84 84 84 85 71 68 60 51 41 32 33 40 47 43 51 57 47 50 54 56 49 59 57 58 49 43 40 39
109 104 106 107 107 107 106 108 108 107 100 89 86 81 87 85 84 82 78 79 81 81 76 72 65 59 47 43 43 41 40 47 44 37 40 48 49 52 55 54 55 62 56 49 42 43 40
111 116 115 106 102 101 100 99 99 92 89 85 82 82 84 82 80 79 78 78 79 77 74 69 64 57 47 46 52 47 41 43 45 44 42 46 45 51 59 54 56 55 53 50 44 39 44
117 106 103 102 99 99 98 98 95 96 89 87 85 85 82 82 78 79 79 79 78 75 73 68 62 52 48 48 59 58 47 52 52 56 47 48 49 54 57 53 54 53 54 53 50 46 48
105 106 104 103 102 100 102 99 97 97 93 91 89 89 86 84 84 82 79 77 75 73 72 69 58 49 50 54 66 66 57 55 51 56 53 56 47 57 54 53 53 54 54 55 55 46 46
96 95 94 94 92 92 92 92 92 94 94 93 92 89 88 85 85 83 78 76 76 74 71 63 54 49 53 62 70 73 64 62 56 52 59 56 51 54 58 54 54 54 58 52 52 52 49
90 87 86 84 84 84 83 86 84 84 87 88 87 84 85 86 85 82 75 76 75 71 67 58 52 52 57 67 67 77 72 68 66 56 57 59 61 59 58 52 54 55 56 54 51 56 49
82 80 78 77 75 74 74 75 76 77 79 79 79 78 80 81 78 75 71 72 68 66 63 57 54 57 60 67 74 71 76 75 75 67 68 59 63 62 59 59 56 54 57 58 57 53 48
74 75 75 74 73 71 71 69 71 70 70 73 72 73 74 73 69 69 68 66 64 62 62 57 56 60 64 68 75 74 74 79 80 76 71 64 64 66 64 61 61 59 56 57 58 58 52
67 67 65 64 65 64 65 66 66 66 65 67 67 65 68 66 67 67 66 63 62 62 62 58 57 62 68 71 77 79 76 79 87 80 75 71 66 66 66 66 62 61 63 58 57 56 57
58 58 58 58 59 59 59 59 58 58 59 56 56 61 64 61 63 63 62 60 59 60 63 62 59 62 70 72 75 83 82 79 84 86 79 74 73 71 72 67 64 61 59 61 62 59 58
54 53 53 52 52 52 51 51 47 48 48 46 51 56 58 58 59 61 59 59 62 64 64 64 60 61 67 72 75 81 87 88 82 81 85 79 76 78 75 70 69 66 65 64 64 64 64
48 47 46 45 44 43 44 44 43 41 39 40 50 53 53 52 54 53 57 62 60 61 61 62 62 59 62 72 72 74 83 87 84 81 79 81 82 77 75 75 67 64 65 61 63 64 63
43 41 40 39 38 36 36 37 37 36 37 41 43 45 44 49 49 52 56 57 56 57 57 57 57 61 59 62 70 70 78 84 87 86 82 79 85 80 77 70 67 68 64 69 65 66 66
38 37 36 34 33 32 31 32 33 33 35 40 39 40 45 48 51 53 53 54 52 52 52 54 57 56 58 61 65 68 75 78 85 92 86 80 77 80 82 78 77 69 69 69 69 71 69
35 32 30 28 28 27 27 28 30 31 33 36 39 39 41 45 47 48 44 41 44 46 47 53 55 58 59 61 63 68 71 76 85 94 92 90 86 81 81 81 78 84 75 77 78 78 71
30 28 26 25 24 23 24 25 28 29 31 33 36 37 40 43 42 38 38 39 40 41 46 47 51 54 54 53 61 68 72 75 80 90 97 93 87 84 83 85 83 80 78 83 90 88 78
28 26 24 22 22 21 21 24 26 29 31 33 35 37 40 41 30 32 35 36 39 41 42 45 47 48 48 53 58 64 72 74 74 82 95 96 93 88 89 83 85 85 85 84 84 85 85
27 26 25 24 22 21 20 22 25 27 31 33 34 34 33 28 32 35 34 33 34 35 37 38 41 40 50 54 57 62 67 70 71 75 84 94 94 94 91 90 86 87 91 92 89 88 88

GFSGBSN_250_spd_069.txt.gz
Wind_Speed
78 80 80 79 81 85 86 86 84 75 68 65 60 68 68 72 65 71 75 78 81 82 76 77 76 79 78 78 79 77 78 76 79 81 83 88 93 93 88 91 95 98 91 61 50 56 51
81 84 85 84 85 85 89 86 85 78 73 68 67 61 62 65 66 67 67 68 71 72 75 72 75 75 79 84 82 85 86 87 93 92 95 95 92 93 95 94 97 95 62 49 44 48 46
80 87 86 94 89 88 89 91 89 82 77 82 72 75 73 72 71 72 77 77 76 77 77 80 79 76 80 79 79 84 87 91 91 92 94 97 99 101 97 95 94 72 48 40 36 40 38
93 94 96 94 92 99 96 93 89 80 83 84 87 87 87 85 82 83 79 77 77 81 84 84 84 84 82 83 78 77 79 81 84 90 92 93 97 99 98 86 72 61 46 32 34 37 39
92 93 100 105 104 104 99 93 89 82 87 85 81 85 81 79 84 84 84 85 86 80 83 82 84 90 81 87 84 85 85 85 86 87 85 91 97 92 78 64 60 51 32 37 38 41 45
93 99 103 109 110 107 106 97 86 85 87 88 88 89 87 82 81 86 86 86 87 86 90 88 85 72 67 71 76 84 89 91 90 90 91 94 94 81 69 57 52 41 37 43 47 48 50
101 104 106 111 112 111 115 92 84 88 87 85 90 93 95 92 88 85 86 87 91 87 90 92 86 76 65 67 73 75 75 79 82 89 94 84 71 62 62 54 48 35 41 46 46 49 46
114 115 116 119 116 119 97 83 83 84 87 86 85 87 92 91 84 89 92 91 92 91 86 88 85 78 79 74 75 73 78 81 85 88 82 74 54 57 57 48 41 38 49 43 49 50 45
117 118 120 120 118 101 89 81 81 87 88 87 87 92 91 90 91 96 92 96 91 87 81 85 71 75 77 78 76 79 80 81 82 83 77 61 52 54 45 37 39 47 55 52 52 51 43
119 121 119 114 102 91 81 76 76 77 83 85 86 91 94 98 97 96 94 94 88 86 78 76 77 79 83 82 83 82 82 78 76 75 63 49 49 42 29 36 43 50 53 53 49 49 37
117 119 118 105 96 87 80 77 80 83 82 82 82 88 90 95 95 99 94 96 90 95 82 82 80 86 91 90 87 86 79 69 66 59 43 40 40 28 30 42 47 47 53 49 45 39 34
127 120 114 96 87 82 82 81 81 85 88 88 90 91 94 94 99 99 98 98 101 92 94 92 89 90 94 91 85 82 68 65 60 44 39 37 32 33 40 42 47 48 50 43 41 40 34
122 117 101 89 84 78 77 78 79 83 88 90 94 97 99 99 108 103 104 105 102 98 102 100 91 81 83 83 77 70 63 60 51 36 36 33 41 39 41 41 51 49 48 50 41 39 34
110 94 89 85 82 80 80 79 80 82 84 86 89 93 97 101 105 104 108 106 97 92 91 97 78 67 71 74 70 63 61 59 44 35 36 39 45 45 49 44 50 44 45 42 41 47 38
92 86 83 82 82 82 82 82 82 82 83 83 83 86 86 94 96 97 95 88 81 83 86 85 73 71 73 73 69 63 59 51 40 37 40 49 52 49 51 49 48 47 41 45 43 48 40
86 82 81 80 79 79 80 79 80 80 80 77 76 77 81 87 87 89 84 78 81 91 94 88 79 79 79 71 62 63 56 51 40 41 46 57 53 49 47 53 49 50 50 48 48 52 40
82 81 83 82 81 80 80 79 81 80 78 75 74 73 84 78 80 78 71 71 78 87 82 81 79 78 76 73 66 66 55 45 39 44 49 61 62 58 52 55 53 53 51 48 47 49 44
81 82 83 82 79 76 73 73 73 71 71 71 69 69 73 75 74 72 68 72 72 80 77 72 72 73 72 72 65 64 60 44 41 48 57 70 69 61 62 60 57 56 53 54 53 44 40
80 78 77 75 73 71 71 69 66 68 68 66 65 63 69 72 66 67 66 65 68 73 71 67 69 72 70 66 60 57 60 40 44 50 61 69 68 69 62 62 61 52 49 54 52 48 45
75 75 72 72 70 68 68 65 64 64 62 58 58 59 66 61 60 59 60 65 65 68 67 66 65 69 68 65 60 58 58 42 47 52 65 73 72 69 68 61 59 56 51 53 60 52 46
72 71 69 66 67 66 61 62 60 58 55 52 54 55 55 55 56 52 50 60 62 65 63 63 63 63 63 61 58 55 54 42 49 54 65 75 75 66 71 69 62 52 59 54 54 59 52
69 66 65 63 60 58 59 58 55 53 51 50 49 48 46 52 49 47 46 54 56 57 61 61 61 62 61 56 53 50 46 41 50 58 67 79 79 65 77 70 73 61 56 56 54 59 59
65 64 61 58 56 56 54 52 51 48 46 44 43 39 41 45 37 41 44 51 51 54 52 55 57 58 58 57 48 47 49 49 56 63 70 87 78 76 78 74 69 65 64 64 63 62 60
62 59 55 53 53 50 48 46 44 43 40 38 36 35 36 38 31 38 40 41 46 46 50 51 52 51 49 49 49 46 46 49 57 64 69 88 88 79 76 78 71 69 64 65 65 65 61
56 54 51 49 47 45 42 41 40 38 35 35 33 31 32 30 30 32 34 39 43 41 43 45 47 49 49 48 47 45 47 47 55 62 69 85 92 85 80 78 80 69 69 71 72 69 66
52 49 47 45 42 39 39 37 34 33 30 29 28 26 27 27 29 27 28 31 36 41 42 44 46 47 46 44 44 45 46 48 54 62 70 78 95 95 82 80 82 78 70 74 74 74 73
45 45 43 41 37 35 34 33 31 28 25 26 24 24 24 24 22 25 25 27 32 37 38 36 39 41 40 38 41 46 49 48 52 60 68 75 91 98 94 86 77 81 75 66 69 70 69
43 41 38 35 33 31 30 29 28 25 23 23 23 21 17 18 20 20 22 27 30 34 37 39 40 42 42 44 47 48 50 48 51 57 63 72 76 94 99 92 88 80 82 78 74 70 69
39 36 35 33 30 28 27 27 25 21 20 19 18 16 16 18 19 22 25 28 30 32 34 35 35 36 35 40 44 48 50 51 55 56 61 67 74 80 97 99 96 90 87 86 84 81 79

GFSGBSN_250_spd_072.txt.gz
Wind_Speed
82 82 82 80 74 68 67 69 71 69 70 70 72 76 71 68 65 69 68 61 69 74 70 68 66 70 72 74 73 66 69 72 73 73 76 77 81 81 78 81 83 86 88 85 84 89 92
84 81 83 81 80 81 79 75 74 71 71 72 74 76 77 69 72 69 72 68 62 64 62 62 69 71 74 74 72 69 69 75 74 73 77 81 82 85 84 87 91 89 89 87 89 91 85
86 83 83 85 83 85 89 83 77 75 73 75 78 81 84 76 74 65 70 76 76 70 67 68 70 70 71 70 69 74 74 77 75 79 81 80 83 84 80 81 90 92 92 88 86 80 59
90 87 86 85 81 82 80 80 81 81 79 80 86 89 92 83 74 73 70 75 77 71 77 77 77 75 81 73 77 77 77 77 78 78 83 83 86 88 86 83 88 90 87 91 88 72 56
97 91 86 88 87 85 84 85 91 90 85 90 95 95 91 88 69 73 76 84 79 79 78 70 68 74 81 81 82 81 79 79 79 80 82 86 91 87 92 94 92 92 86 73 64 60 51
97 97 90 93 93 94 93 92 92 92 94 93 98 94 95 79 70 74 76 78 80 76 78 80 78 77 79 81 80 82 80 78 82 77 74 81 80 78 85 88 82 82 71 59 51 55 49
101 102 99 96 91 92 93 93 91 93 96 102 98 100 88 74 73 73 77 80 78 80 79 75 73 77 77 77 77 79 78 72 74 77 75 71 72 76 75 77 68 63 57 49 45 50 38
109 106 102 103 98 95 95 93 99 100 105 104 100 100 80 70 73 75 74 78 78 77 79 82 86 81 81 79 85 82 80 72 70 68 69 71 70 75 74 73 63 52 49 47 45 44 40
110 109 106 105 95 98 96 101 102 104 107 103 104 88 77 75 78 76 74 75 77 79 76 85 82 85 87 82 80 79 79 74 71 69 69 70 76 76 71 61 53 48 49 48 42 42 41
113 109 114 104 104 102 104 105 105 109 106 105 95 80 73 77 75 76 78 78 81 81 79 81 85 85 84 80 81 79 75 72 70 72 72 74 74 71 63 51 42 46 50 40 41 44 45
106 105 106 110 107 107 105 103 106 101 105 94 81 78 77 75 77 78 79 79 79 80 76 79 75 81 84 82 79 77 76 77 78 79 78 78 75 65 47 44 39 41 37 35 43 45 51
107 108 109 108 111 110 104 107 104 104 91 82 75 77 78 78 84 80 81 81 80 78 75 77 79 80 81 79 78 80 82 81 79 80 78 76 67 44 38 37 29 29 29 39 43 45 49
106 109 110 108 108 104 106 102 102 92 84 78 75 75 77 81 86 87 90 88 84 81 85 88 84 85 88 88 85 85 83 85 83 82 79 62 48 36 34 32 31 34 37 45 49 49 51
109 108 109 108 104 102 100 96 87 83 80 79 74 73 75 76 78 80 89 93 90 92 98 100 93 91 92 94 93 89 89 88 83 75 61 54 35 36 32 31 34 34 42 47 51 52 52
105 105 105 102 101 95 90 86 83 80 77 75 75 72 79 72 72 73 78 79 82 89 95 105 99 94 92 96 92 86 82 75 67 61 54 50 36 38 34 39 43 46 44 46 51 57 49
107 103 101 98 93 87 84 82 80 80 79 77 76 75 78 76 74 72 69 66 69 80 93 93 90 86 85 88 85 74 69 62 60 57 55 47 40 40 38 46 50 50 51 49 52 57 50
97 95 91 88 86 85 83 81 80 80 78 75 72 74 73 73 71 70 68 67 71 77 83 83 84 78 84 81 80 77 69 64 63 56 50 45 40 41 44 51 53 50 56 52 51 59 50
90 88 87 86 83 82 82 81 79 74 70 68 66 71 70 71 68 66 64 62 66 72 79 72 73 72 75 73 75 72 69 67 67 64 56 48 44 46 50 54 54 56 56 53 56 59 53
84 81 82 82 81 81 79 75 72 69 66 64 62 68 67 68 64 63 62 61 62 68 73 63 66 64 67 69 67 69 61 59 58 57 57 55 46 50 55 61 57 62 60 56 53 54 55
80 81 80 79 79 76 73 71 69 65 62 62 62 66 67 60 59 57 56 56 58 63 66 57 57 60 65 67 61 64 59 55 55 54 49 51 50 56 58 67 60 65 65 59 61 53 50
78 77 75 74 73 71 70 68 66 62 60 59 60 61 60 52 51 47 46 46 52 57 59 55 55 57 63 63 59 57 51 51 48 49 48 49 54 61 60 71 67 59 67 66 55 61 52
73 71 70 70 68 67 66 65 63 60 58 56 52 52 49 50 46 43 41 42 51 51 52 51 50 55 59 55 50 50 43 44 44 45 49 54 59 65 63 74 73 66 63 68 60 60 59
67 68 68 66 65 64 62 59 58 55 54 48 46 45 46 46 42 36 40 40 48 43 44 43 46 51 53 52 46 46 44 43 47 52 53 57 61 64 65 76 79 73 72 69 67 67 60
65 65 64 62 61 59 56 55 53 49 47 45 41 42 41 40 37 31 38 39 43 39 40 41 43 40 44 42 44 42 44 45 48 52 53 56 63 65 68 74 78 78 73 73 67 66 60
62 62 61 57 55 54 53 50 47 44 42 41 36 37 35 34 32 30 36 36 31 31 34 34 37 42 41 42 43 42 43 42 46 49 51 56 62 66 72 78 77 79 76 71 69 74 66
60 60 55 52 52 50 48 45 42 39 37 36 32 32 29 28 28 29 29 28 30 30 31 32 36 36 38 39 41 43 44 46 46 48 51 55 61 66 74 78 79 79 73 76 73 66 64
58 53 51 49 47 45 43 40 38 35 32 28 27 25 24 20 23 24 23 25 26 26 29 34 36 35 36 34 37 40 40 41 46 50 51 56 62 67 75 82 79 80 77 77 79 74 68
52 47 47 44 42 40 37 36 34 30 25 23 23 23 20 20 21 20 23 25 28 30 31 32 32 34 37 38 40 39 41 42 47 48 50 55 59 68 70 83 78 82 80 78 80 79 72
45 45 43 41 38 35 33 33 29 24 21 21 20 20 18 18 19 21 23 27 28 27 28 30 32 32 34 37 40 43 42 43 44 47 47 52 60 64 70 84 86 85 83 79 79 79 77

GFSGBSN_250_spd_075.txt.gz
Wind_Speed
75 80 81 80 85 87 83 82 75 73 75 78 81 84 84 79 75 71 69 63 61 54 56 57 67 64 60 65 65 59 69 70 72 66 66 66 69 68 71 75 76 73 74 73 75 79 81
79 80 81 86 88 89 85 85 85 77 77 80 81 82 86 76 77 74 73 73 66 63 58 55 65 65 63 61 59 61 66 72 71 69 71 75 73 73 74 75 76 78 75 78 79 82 89
87 84 83 87 87 88 87 86 84 91 85 81 85 85 83 83 82 79 81 82 75 62 64 53 67 71 67 73 68 67 64 69 74 73 74 76 69 72 75 77 81 83 85 84 84 81 81
92 89 87 88 89 92 93 94 92 90 90 91 90 89 91 89 89 89 87 86 75 64 65 52 62 65 66 72 73 65 70 70 73 72 74 71 71 74 75 78 75 78 80 82 77 82 82
91 91 93 95 98 95 97 95 94 93 94 101 98 93 93 91 91 92 90 84 78 70 56 68 63 62 63 67 68 70 72 69 67 69 75 75 75 77 77 76 75 77 78 71 69 70 66
99 99 98 102 102 103 100 99 101 100 102 101 104 101 94 93 94 88 80 81 77 70 59 65 71 66 67 71 79 69 69 71 71 73 72 75 74 77 77 78 75 74 72 68 63 64 61
103 105 105 105 106 105 107 108 111 109 109 114 110 105 106 99 94 89 84 83 76 64 60 63 66 76 80 77 71 74 75 76 73 73 69 72 73 78 78 79 77 71 69 69 65 66 53
107 110 110 109 109 108 111 114 116 111 111 112 109 102 102 99 93 86 84 80 74 62 64 70 73 73 79 77 73 75 71 71 68 71 75 77 76 74 69 75 70 68 67 63 58 57 49
112 110 109 109 114 113 116 117 121 119 117 117 106 103 96 92 85 85 79 76 70 61 62 75 75 75 80 78 74 82 73 77 78 78 81 80 76 74 70 70 65 64 68 62 61 49 41
114 112 114 115 120 119 120 117 114 112 107 102 98 97 93 89 85 80 78 71 67 63 62 74 80 78 79 80 77 79 80 80 78 78 75 73 77 72 69 71 73 69 64 58 49 44 36
114 120 119 125 124 122 111 106 105 103 102 96 94 93 90 90 82 76 75 70 69 64 63 75 78 81 78 78 77 78 78 78 78 78 76 74 75 75 73 73 73 65 54 51 42 39 32
124 124 125 125 118 110 112 107 108 107 99 98 95 91 89 83 79 73 67 66 69 69 64 75 78 79 79 79 81 82 83 81 79 75 75 75 72 71 72 69 67 56 49 42 36 32 23
125 124 122 115 108 114 115 111 113 107 101 97 91 86 83 76 71 70 69 66 66 66 73 75 78 79 84 87 88 87 85 80 77 74 75 73 72 74 70 69 64 45 43 37 27 13 38
117 120 109 112 115 119 115 114 106 100 97 89 82 79 76 71 69 68 67 64 62 63 72 76 80 81 84 89 86 84 81 80 78 75 77 75 73 73 73 73 49 43 37 32 20 25 43
113 113 113 115 113 116 106 103 100 96 89 80 77 75 74 71 70 67 67 64 65 67 66 74 83 85 89 84 82 81 82 83 82 78 79 78 77 75 73 53 39 39 35 34 28 33 46
115 112 113 116 118 107 100 97 94 88 80 77 77 76 76 74 71 70 66 66 66 66 66 70 78 74 77 82 83 87 85 83 83 82 81 82 79 73 62 45 38 38 37 32 32 39 49
115 113 112 110 101 97 94 90 85 80 76 75 76 78 75 70 67 64 62 62 59 62 63 67 70 69 69 74 77 85 91 92 91 91 92 88 73 60 53 40 37 40 40 36 38 42 52
106 103 97 97 91 90 85 82 79 77 75 76 75 73 68 67 63 62 62 60 58 60 62 60 61 62 67 64 69 71 78 84 84 85 83 73 60 51 49 37 40 41 47 46 42 45 57
97 95 93 88 85 81 78 78 77 76 74 72 68 70 65 62 60 60 59 57 54 56 56 54 56 57 61 57 63 65 66 69 71 71 69 64 59 54 49 40 45 46 54 54 51 49 55
92 88 84 80 78 76 76 76 76 73 68 66 66 68 60 60 59 57 55 54 51 52 53 49 53 54 57 57 56 60 62 61 61 63 62 61 60 58 52 48 50 51 57 59 55 54 55
83 80 76 76 76 75 75 75 73 68 64 64 63 64 61 55 55 51 50 51 46 46 49 45 50 52 54 53 54 56 55 56 56 55 56 60 64 62 55 51 55 57 58 62 60 58 55
74 73 73 73 73 73 72 69 67 64 62 63 62 58 55 53 48 44 41 42 39 40 42 37 44 47 49 51 52 52 45 44 49 50 52 56 60 57 55 53 61 61 60 67 62 60 60
71 71 71 70 70 68 67 65 62 61 62 59 55 52 49 47 41 38 34 35 35 36 37 34 38 40 44 50 47 47 44 43 46 47 50 54 56 57 57 56 64 64 62 64 65 62 62
68 67 66 65 65 64 63 60 59 59 58 53 49 46 44 40 35 31 32 33 34 32 31 31 32 36 39 43 42 44 43 44 46 50 52 56 54 51 55 57 62 68 62 67 67 68 64
63 63 63 62 62 61 59 57 56 55 52 46 43 41 39 34 30 28 32 29 33 27 29 28 30 34 36 38 41 41 44 46 47 50 51 53 52 51 54 56 64 66 63 67 70 71 70
60 60 59 59 59 57 56 54 52 49 45 42 38 35 31 31 24 27 29 27 29 26 27 27 30 32 35 39 40 38 42 47 47 48 48 50 53 53 54 58 62 63 65 66 71 69 74
58 57 56 57 56 53 51 50 47 43 40 38 32 29 28 26 25 25 24 25 25 24 26 27 32 32 34 33 34 37 41 45 45 47 45 45 49 54 57 58 62 63 65 64 73 70 71
56 54 54 53 51 49 48 46 42 38 34 31 28 26 24 24 24 22 21 23 25 27 25 31 32 30 34 35 35 36 37 41 43 44 43 44 48 55 58 59 65 62 67 66 74 74 74
54 51 49 48 47 46 44 41 38 33 29 27 24 24 21 22 20 19 18 23 25 26 26 26 25 27 30 32 35 37 38 41 42 42 43 45 45 48 54 60 61 60 66 67 73 80 77

GFSGBSN_250_spd_078.txt.gz
Wind_Speed
74 77 74 79 76 79 79 83 80 81 82 82 80 80 80 78 76 76 75 72 75 83 78 75 75 72 71 66 63 55 65 67 63 63 65 65 68 68 68 68 68 67 68 69 70 74 73
77 80 82 82 85 83 86 89 88 86 85 85 84 81 86 81 81 79 79 83 81 79 87 87 84 77 73 77 74 61 61 68 70 69 66 64 67 68 70 64 65 70 66 68 71 71 73
85 87 87 87 87 86 93 92 91 89 90 89 90 89 87 89 86 89 87 90 87 90 90 88 91 88 86 86 81 79 69 65 71 73 66 63 63 60 60 68 68 67 67 62 67 73 71
93 92 88 88 88 88 91 95 94 97 96 93 97 95 92 92 90 93 98 98 97 92 93 90 86 91 91 91 88 76 73 73 73 73 73 70 66 65 64 65 66 63 65 63 67 71 75
92 92 92 91 93 95 91 89 95 93 95 95 98 99 101 100 103 103 104 106 103 100 98 94 84 84 91 89 86 77 73 75 74 73 71 71 73 66 67 69 68 62 60 64 68 73 74
92 100 97 93 86 88 92 93 97 101 107 106 107 105 105 105 107 108 109 108 100 97 91 86 82 81 86 84 84 74 71 67 76 73 68 66 64 65 70 69 63 66 64 64 65 72 75
94 94 91 91 90 93 97 99 102 108 108 108 109 104 106 104 112 111 110 102 95 85 79 80 78 76 79 79 73 66 71 65 63 64 71 70 70 65 70 66 66 69 65 64 71 70 71
94 89 93 94 98 97 98 109 111 114 115 113 109 112 111 115 115 109 103 98 90 75 70 74 71 64 68 68 64 73 78 75 71 68 69 69 67 71 68 69 71 70 68 69 69 70 67
92 93 97 99 100 102 109 111 110 110 115 113 117 120 117 118 108 105 95 86 81 76 64 67 69 61 57 60 63 72 79 75 77 78 76 72 72 69 65 67 68 70 69 72 72 73 71
97 98 103 106 110 107 113 111 114 122 120 121 124 124 118 111 101 93 92 83 81 77 63 60 63 58 56 57 65 72 73 76 78 76 82 79 77 74 67 70 71 70 73 71 70 68 66
103 107 110 114 114 115 119 120 118 120 124 126 125 116 112 102 96 92 86 84 81 72 63 58 57 58 58 60 66 74 78 79 80 78 75 73 71 71 74 75 72 70 71 73 70 66 59
112 113 113 113 118 117 119 123 126 128 128 126 119 109 103 101 104 91 86 80 74 70 62 57 53 59 62 63 64 73 79 81 83 83 83 80 79 78 78 74 74 68 70 72 65 55 57
116 120 119 119 122 119 122 124 125 128 121 121 113 108 102 100 89 85 80 74 67 61 59 55 54 55 62 62 65 70 74 80 82 82 84 83 81 78 76 75 74 71 74 71 57 58 53
120 118 119 123 126 125 126 130 126 124 116 114 108 103 98 94 88 80 72 68 60 55 55 55 54 56 56 60 61 71 74 76 79 82 83 78 78 76 76 76 73 72 70 61 53 54 40
120 124 125 127 127 127 131 130 124 116 114 110 102 95 91 86 80 73 67 63 60 56 54 57 60 56 55 57 59 66 74 77 77 77 77 78 80 79 77 75 73 72 66 56 50 45 30
123 124 122 130 129 127 126 129 119 115 110 104 97 92 88 80 73 67 65 64 61 57 54 56 58 58 56 57 59 61 70 78 83 82 81 79 79 77 73 73 72 66 60 52 51 40 30
123 122 115 121 125 126 111 110 106 102 98 94 89 85 80 73 68 67 65 62 56 55 53 55 55 54 50 55 62 61 63 71 77 81 80 82 79 75 75 74 72 66 59 56 50 39 33
115 114 118 115 110 113 107 109 99 97 90 86 82 76 73 69 68 65 61 58 54 54 51 52 53 49 49 53 58 61 64 64 73 78 77 77 76 74 74 72 71 67 60 60 49 37 36
109 109 108 105 107 105 100 96 90 86 81 79 75 72 70 67 64 63 58 56 52 51 50 49 49 48 48 51 54 57 57 64 64 69 73 76 78 78 76 75 72 67 63 52 46 36 42
99 101 100 98 94 91 90 86 82 77 73 74 72 70 67 62 62 59 57 54 51 48 46 47 46 46 47 50 48 54 54 57 64 65 66 67 73 82 84 81 79 74 54 45 45 39 48
95 92 91 88 88 83 80 77 74 72 71 71 68 65 63 60 59 58 53 49 45 44 43 43 43 41 43 49 48 52 53 52 58 63 68 58 64 68 70 72 70 58 49 45 48 45 49
87 85 83 80 77 76 73 70 69 69 70 67 63 62 61 59 56 51 48 45 42 37 38 40 38 39 43 46 47 48 52 53 55 59 60 56 58 59 60 61 60 54 52 50 50 50 51
79 77 75 72 71 69 68 67 67 67 64 61 59 58 59 56 51 46 42 40 37 35 34 34 36 36 42 44 42 44 49 55 50 53 49 50 52 52 55 53 52 55 53 52 55 58 59
70 69 68 67 67 66 66 65 64 62 61 57 56 56 54 49 44 37 37 37 35 33 30 31 32 33 37 39 41 42 45 47 45 44 48 47 51 51 49 46 51 55 53 54 59 61 63
66 66 65 65 65 64 62 60 59 57 57 55 54 52 48 43 36 34 34 32 30 28 28 25 29 32 33 37 40 40 39 40 41 46 51 51 51 49 47 46 47 50 51 59 63 64 68
64 63 63 62 62 59 56 56 54 54 53 52 49 44 42 40 31 32 30 27 25 26 25 21 29 29 32 36 38 37 36 40 45 50 53 48 49 46 49 45 48 51 53 59 65 63 69
61 60 59 57 56 54 53 52 52 50 48 49 42 39 36 36 30 27 23 25 24 25 22 22 25 27 30 28 33 34 36 40 44 47 50 47 46 46 48 46 50 51 54 60 65 62 68
58 57 56 55 54 52 50 49 47 45 45 44 38 35 30 31 26 23 21 22 22 21 19 20 26 28 28 28 29 33 37 41 42 45 49 48 46 45 44 49 54 51 55 64 66 64 68
57 55 54 54 52 49 47 46 44 42 40 39 35 30 29 26 23 22 20 19 19 17 16 21 23 23 26 29 33 36 38 41 42 44 47 47 45 44 43 47 53 52 57 65 68 65 69

GFSGBSN_250_spd_084.txt.gz
Wind_Speed
71 66 65 70 68 68 71 71 74 73 74 72 72 71 73 76 74 77 77 78 77 77 77 78 75 72 73 69 69 65 62 64 67 72 76 76 77 78 72 66 64 60 61 65 66 67 67
76 80 78 80 78 76 77 77 77 74 75 75 75 73 73 79 81 79 80 80 78 80 79 80 79 74 71 70 69 67 68 68 81 79 81 82 80 80 72 70 67 64 64 62 65 57 64
83 81 83 84 83 82 86 81 76 77 74 77 73 78 79 81 84 86 82 83 82 83 86 87 81 77 79 74 70 76 84 88 91 82 78 80 72 80 78 79 74 71 75 70 65 69 59
88 87 84 86 87 86 83 80 74 74 78 78 79 80 82 81 88 91 90 86 85 90 89 80 74 78 70 69 82 84 91 99 91 81 76 71 69 71 77 79 77 72 74 74 71 68 67
90 91 90 88 85 83 79 75 74 79 82 83 82 83 82 84 87 91 91 92 89 93 88 81 81 77 72 81 88 95 96 101 87 77 71 65 64 67 74 79 79 71 70 69 70 71 69
95 95 94 97 90 88 88 82 79 79 85 87 87 88 86 87 91 91 91 93 93 93 87 85 80 83 86 90 94 97 97 87 78 72 66 61 62 65 68 73 74 73 69 69 71 74 63
101 97 96 98 98 94 93 92 92 88 87 90 92 91 89 89 92 97 94 97 93 89 89 89 90 92 91 94 100 95 91 78 72 69 63 60 57 61 67 70 72 70 71 72 75 76 69
105 102 101 101 102 101 102 97 96 98 97 96 95 97 94 92 98 100 99 98 95 89 95 94 96 92 94 92 92 88 79 73 66 63 61 60 57 63 65 68 72 75 72 74 77 78 69
111 106 107 107 105 106 107 104 102 99 99 98 95 95 99 104 108 103 102 101 101 96 97 100 97 99 91 89 83 80 70 63 59 59 62 61 61 63 65 71 76 79 75 78 72 76 78
113 110 113 112 110 107 107 106 106 104 104 107 107 107 110 109 106 108 102 103 101 106 102 100 98 97 91 87 77 73 68 61 56 58 59 58 64 65 65 70 78 78 75 71 66 70 72
117 120 111 117 115 109 107 109 109 106 108 108 108 109 109 111 110 107 106 111 106 102 97 97 96 88 83 81 77 71 66 62 57 55 58 58 63 65 68 72 73 75 73 72 65 64 60
121 117 114 116 119 110 108 109 111 106 109 111 110 109 108 109 107 107 107 103 99 100 95 89 87 86 83 77 71 69 64 61 58 53 58 59 61 64 67 70 72 72 67 59 57 60 55
114 111 112 107 116 113 111 110 111 110 111 108 108 112 106 107 107 106 102 108 96 91 90 86 86 84 78 73 68 62 59 58 57 54 57 60 62 63 65 68 68 72 63 63 63 62 59
108 109 109 112 112 111 107 110 113 112 113 114 109 112 115 108 110 104 111 99 93 89 86 85 84 78 70 67 61 61 54 56 56 54 54 60 63 64 64 63 68 68 69 66 64 64 62
105 107 108 110 109 108 104 105 108 108 113 109 114 110 112 114 115 102 99 94 90 88 87 84 78 72 69 60 57 58 56 55 56 56 55 57 61 63 62 63 63 64 71 69 66 65 64
101 102 103 106 103 102 102 102 104 108 106 108 106 103 99 106 104 103 99 91 88 87 82 76 71 64 59 57 54 55 59 56 56 57 55 55 59 63 63 63 64 63 66 68 71 65 61
95 98 100 102 101 100 100 100 102 105 101 101 103 104 105 100 101 98 95 89 84 78 76 71 65 59 58 57 55 52 54 58 54 56 57 58 57 61 64 66 65 64 64 64 65 62 63
93 94 96 98 100 100 98 97 100 100 103 104 105 101 101 99 96 90 85 82 78 73 68 64 60 58 55 51 52 48 51 54 52 54 57 58 57 59 64 66 66 62 59 62 65 64 61
86 87 88 90 91 90 91 93 94 96 98 97 99 94 93 93 84 80 78 75 71 68 61 60 56 53 49 47 47 48 48 52 52 53 53 56 56 59 59 61 68 66 62 59 56 54 51
77 79 82 83 84 86 89 87 90 89 90 90 92 84 81 77 76 74 72 68 64 62 59 55 50 46 46 45 45 47 48 48 50 52 52 51 56 60 60 61 68 69 67 61 57 52 49
72 73 74 76 78 78 78 78 83 80 79 76 75 73 71 70 70 66 64 62 59 57 52 49 47 45 45 42 41 43 43 46 53 50 54 51 54 60 60 60 64 69 67 63 60 55 50
70 70 72 71 72 73 72 70 70 71 69 67 64 67 67 62 59 59 59 57 53 49 45 49 46 42 39 38 38 37 39 47 47 52 54 51 52 55 61 62 64 66 68 66 63 62 62
67 66 67 68 68 67 65 63 64 63 63 64 64 59 58 55 52 54 53 52 49 47 45 45 44 36 35 35 33 35 39 44 45 51 50 48 50 53 57 61 61 61 66 69 66 61 59
65 66 66 65 64 63 60 61 61 61 60 58 56 55 54 50 50 48 48 49 47 45 42 41 38 34 33 31 31 33 37 40 45 46 46 49 50 53 52 57 60 58 61 66 64 59 56
62 62 59 59 59 58 58 58 58 56 52 50 50 50 50 47 45 44 47 47 43 41 39 32 35 31 30 27 28 34 36 37 42 42 43 45 48 49 49 48 50 54 57 62 59 60 58
59 58 57 56 55 56 55 54 52 50 48 46 47 48 47 45 43 43 41 42 40 36 35 30 29 28 28 26 28 33 34 36 37 37 35 40 47 47 45 46 46 53 56 57 55 56 56
56 56 54 55 54 52 50 48 48 47 46 44 45 47 46 44 42 38 37 34 35 33 28 29 25 26 27 26 27 30 33 31 32 32 34 42 46 47 46 47 48 50 54 55 53 52 56
56 55 54 52 50 48 48 46 45 44 46 44 43 45 45 44 38 35 31 29 28 29 25 26 23 22 25 24 23 27 30 30 28 31 35 43 46 49 50 49 51 51 51 52 51 51 53
53 52 51 49 48 48 46 45 43 44 46 42 43 43 42 42 36 31 26 24 25 25 23 25 24 23 23 21 23 27 32 32 33 34 37 44 49 52 54 53 52 52 52 52 52 52 52

GFSGBSN_250_spd_087.txt.gz
Wind_Speed
68 66 65 65 69 68 68 70 69 70 73 72 73 73 72 70 71 72 73 76 75 71 75 79 81 79 79 77 78 74 78 81 76 71 59 58 58 59 67 72 75 66 66 68 66 67 62
74 71 69 73 73 74 76 76 76 73 73 77 76 76 77 73 73 77 77 78 76 75 76 82 83 86 86 82 79 80 78 78 68 62 61 71 70 69 80 80 73 72 78 71 73 72 67
74 80 80 77 81 76 77 77 79 78 78 77 78 78 75 74 77 79 80 80 78 80 82 82 84 83 85 87 81 83 86 66 59 61 66 74 79 82 85 83 73 71 78 81 75 74 71
81 76 85 83 80 83 80 80 81 81 80 78 77 76 75 76 78 82 82 84 84 83 85 84 81 85 84 83 84 82 73 68 71 64 73 81 88 88 86 82 74 72 73 75 78 75 72
89 84 80 91 87 90 92 92 84 80 80 82 79 80 76 76 80 82 87 87 90 91 90 87 82 84 84 89 90 88 78 78 73 74 78 83 90 85 80 80 69 68 67 74 76 73 72
89 88 86 91 93 92 94 91 85 84 83 84 87 86 84 86 83 86 88 89 92 94 93 91 87 86 85 92 93 88 83 82 83 86 89 86 81 79 76 75 66 69 67 70 74 76 74
98 91 90 92 97 97 94 93 91 91 90 89 92 92 90 90 90 93 93 94 93 93 94 89 85 83 95 94 91 90 89 93 92 85 83 81 81 76 72 68 64 64 66 69 73 74 72
98 96 93 95 96 101 98 95 99 98 93 95 95 96 98 99 96 97 98 97 98 94 92 89 89 98 91 97 94 93 88 84 80 80 78 78 77 73 67 63 62 61 65 66 70 74 69
104 100 100 98 100 102 104 101 100 96 96 96 97 98 98 100 100 103 103 98 97 96 96 96 97 100 95 96 95 88 85 77 75 74 79 76 73 65 66 59 59 59 62 61 63 68 63
114 110 112 112 105 107 109 106 106 100 96 101 104 102 106 106 110 111 103 102 99 99 100 98 100 99 94 97 90 87 80 75 78 78 76 69 67 61 63 58 59 57 61 58 61 63 62
121 119 117 117 113 111 113 110 107 105 104 104 107 108 110 112 114 113 106 103 101 103 106 100 101 97 96 92 88 81 78 75 74 75 72 66 61 61 59 61 59 58 59 59 60 60 62
123 121 121 122 120 119 118 116 113 116 109 107 108 106 110 114 113 112 108 106 107 105 104 104 102 100 95 91 92 83 77 78 76 72 66 65 61 58 58 59 59 58 57 59 59 60 56
117 124 126 127 123 127 121 116 111 115 112 112 116 108 110 112 110 114 112 110 107 106 102 98 98 94 91 93 90 80 79 75 75 67 63 61 58 53 55 57 58 57 57 58 56 57 56
98 107 118 121 118 120 124 112 113 115 116 112 111 108 109 106 105 109 108 105 104 96 94 96 94 92 97 90 85 76 76 71 69 64 58 55 53 51 49 56 58 57 57 56 56 55 54
87 94 104 110 109 112 114 113 107 111 109 109 108 105 107 105 104 102 102 101 99 98 97 97 96 92 94 85 74 74 69 66 67 59 53 52 53 47 46 55 57 58 55 55 52 53 55
83 89 90 99 100 105 105 105 101 101 103 103 103 104 102 102 100 99 98 98 98 97 97 99 95 88 86 78 68 67 62 61 62 55 53 51 50 44 46 52 57 58 57 56 56 54 55
82 80 81 86 90 94 94 97 98 98 98 98 99 101 100 98 98 98 98 96 98 98 100 94 90 82 76 73 64 63 56 58 57 55 54 52 49 47 46 51 55 59 61 59 57 59 58
78 80 77 79 82 84 87 89 87 91 92 94 97 95 96 96 97 97 97 96 96 91 87 84 77 74 71 66 60 56 56 58 53 55 54 50 48 49 50 50 53 59 63 61 58 56 58
74 76 75 74 74 73 76 77 80 82 83 85 88 91 91 91 92 91 91 89 83 80 75 72 71 70 65 60 56 57 55 53 51 54 53 50 47 47 50 50 52 56 63 62 58 61 62
64 66 68 66 65 69 71 75 76 76 79 80 85 85 87 87 85 83 81 78 75 70 68 69 65 62 59 57 53 53 51 48 52 51 51 49 45 47 47 52 54 56 63 65 63 60 64
60 61 61 61 62 65 67 69 70 71 75 75 78 78 76 77 75 72 72 68 66 65 64 62 59 59 56 52 49 47 46 46 49 51 48 45 45 47 48 52 56 59 63 68 68 65 60
59 60 59 60 62 62 64 66 67 65 67 69 68 69 67 67 67 66 67 64 62 61 59 58 56 52 49 46 43 40 41 43 45 46 45 43 45 46 52 50 53 60 61 62 66 64 60
56 58 58 58 59 61 61 61 61 62 64 66 65 62 63 64 63 64 60 59 58 56 55 52 49 48 41 42 36 36 36 38 37 39 43 45 50 51 48 47 51 57 59 59 65 66 59
55 56 56 56 55 57 59 60 60 62 62 62 61 61 60 59 57 56 54 55 55 54 50 46 44 43 39 38 31 32 33 33 33 37 43 42 46 49 44 47 51 54 58 57 58 65 63
53 54 56 57 56 57 59 59 58 59 59 59 60 57 53 53 51 51 52 51 51 49 48 45 40 37 38 32 28 30 30 30 32 34 39 38 40 39 45 48 49 51 57 57 58 63 62
51 51 52 53 54 55 57 57 55 53 54 54 52 50 49 49 47 49 47 47 46 46 44 43 37 32 33 29 27 27 29 26 30 33 32 32 32 38 47 46 50 52 54 56 57 58 60
51 51 51 50 49 51 52 50 49 48 49 50 49 48 46 46 46 43 42 42 43 42 41 38 33 27 27 27 25 25 27 24 28 28 29 32 36 43 47 47 47 49 46 50 52 56 59
52 51 50 49 49 49 49 48 46 46 46 46 45 45 44 45 42 39 39 38 41 37 36 32 27 24 22 23 25 25 25 26 26 28 27 31 37 44 46 47 48 45 43 45 52 56 58
52 51 50 50 49 48 48 48 48 46 45 41 43 43 44 43 39 37 34 37 35 33 28 27 25 22 20 21 24 25 26 25 27 28 29 34 39 47 47 47 48 45 47 47 50 57 59